Tracking 19644 objects as of 26-Apr-2019
HD Live streaming from Space Station
objects crossing your sky now

SL-16 DEB

Track SL-16 DEB now!
10-day predictions


NORAD ID: 39906
Int'l Code: 1993-016CG
Perigee: 739.7 km
Apogee: 927.7 km
Inclination: 71.0 °
Period: 101.4 minutes
Semi major axis: 7204 km
RCS: Unknown
Launch date: March 26, 1993
Source: Commonwealth of Independent States (former USSR) (CIS)
Launch site: TYURATAM MISSILE AND SPACE COMPLEX (TTMTR)

Note: This is SATELLITE DEBRIS
aabbcc
Your satellite tracking list
Your tracking list is empty




NASA's NSSDC Master Catalog

Two Line Element Set (TLE):
1 39906U 93016CG  19112.19322964  .00001434  00000-0  64385-3 0  9997
2 39906  70.9729  50.8772 0130457 186.3835 173.5636 14.19641341755266
Source of the keplerian elements: AFSPC